Date String (YYYY-MM-DD hh:mm:ss) UTC,Instrument flags,absolute air pressure of the measurement (hPa),sample flow rate (lpm),inlet stack bypass flow (lpm),air temperature of the measurement (°C),ambient temperature measured by the external sensor (°C),aerosol sample conditioner tube jacket temperature (°C),OPC LED temperature (°C),internal box temperature (°C),relative humidity of the measurement (%),span deviation,mass concentration of particles derived from Lorenz-Mie calculation of OPC scattering (μg/m³),mass concentration of particles derived from Lorenz-Mie calculation of OPC scattering (μg/m³),mass concentration of particles derived from Lorenz-Mie calculation of OPC scattering (μg/m³)
DateTimeUTC,F1_M11,P_M11,Q1_M11,Q2_M11,T1_M11,T2_M11,T3_M11,T4_M11,T5_M11,U1_M11,ZSPAN_M11,X2_M11,X0_M11,X1_M11
2023-10-02 18:00:00,SystemResetWarning,0828.1,5.00,000.00,028.6,026.0,000.0,037.1,030.2,23.3,0000.0,0004.80,0013.47,0003.82
2023-10-02 18:01:00,SystemResetWarning,0828.1,4.99,000.00,028.6,026.3,000.0,037.1,030.2,23.4,0000.0,0004.74,0014.38,0003.80
2023-10-02 18:02:00,SystemResetWarning,0828.1,4.99,000.00,028.6,026.6,000.0,037.1,030.3,23.5,0000.0,0004.71,0016.10,0003.79
2023-10-02 18:03:00,SystemResetWarning,0828.1,5.00,000.00,028.6,026.9,000.0,037.1,030.3,23.5,0000.0,0004.71,0017.28,0003.79
2023-10-02 18:04:00,SystemResetWarning,0828.0,5.00,000.00,028.6,027.1,000.0,037.1,030.4,23.5,0000.0,0004.65,0016.78,0003.78
2023-10-02 18:05:00,SystemResetWarning,0828.0,5.02,000.00,028.6,027.3,000.0,037.1,030.4,23.5,0000.0,0004.73,0015.80,0003.77
2023-10-02 18:06:00,SystemResetWarning,0828.0,5.01,000.00,028.7,027.4,000.0,037.1,030.5,23.4,0000.0,0004.77,0016.33,0003.76
2023-10-02 18:07:00,SystemResetWarning,0827.9,4.99,000.00,028.7,027.5,000.0,037.2,030.5,23.2,0000.0,0004.77,0016.54,0003.76
2023-10-02 18:08:00,SystemResetWarning,0827.8,5.00,000.00,028.8,027.7,000.0,037.2,030.6,23.3,0000.0,0004.76,0016.40,0003.74
2023-10-02 18:09:00,SystemResetWarning,0827.8,4.99,000.00,028.8,027.8,000.0,037.2,030.6,23.3,0000.0,0004.77,0016.34,0003.74
2023-10-02 18:10:00,SystemResetWarning,0827.8,5.00,000.00,028.8,027.1,000.0,037.2,030.6,23.4,0000.0,0004.78,0016.57,0003.74
2023-10-02 18:11:00,SystemResetWarning,0827.7,5.01,000.00,028.8,025.3,000.0,037.1,030.4,23.6,0000.0,0004.74,0016.34,0003.73
2023-10-02 18:12:00,SystemResetWarning,0827.7,5.00,000.00,028.7,024.6,000.0,037.0,030.3,23.6,0000.0,0004.77,0015.56,0003.72
2023-10-02 18:13:00,SystemResetWarning,0827.7,5.01,000.00,028.6,024.8,000.0,037.0,030.1,23.9,0000.0,0004.74,0015.10,0003.72
2023-10-02 18:14:00,SystemResetWarning,0827.7,5.00,000.00,028.5,025.1,000.0,037.0,030.1,24.0,0000.0,0004.72,0013.58,0003.72
2023-10-02 18:15:00,SystemResetWarning,0827.7,5.00,000.00,028.5,025.5,000.0,037.1,030.1,24.2,0000.0,0004.77,0013.54,0003.73
2023-10-02 18:16:00,SystemResetWarning,0827.7,5.00,000.00,028.5,025.9,000.0,037.0,030.1,24.2,0000.0,0004.75,0013.87,0003.74
2023-10-02 18:17:00,SystemResetWarning,0827.5,5.00,000.00,028.5,026.3,000.0,037.0,030.2,24.3,0000.0,0004.71,0013.37,0003.73
2023-10-02 18:18:00,SystemResetWarning,0827.5,4.99,000.00,028.5,026.6,000.0,037.0,030.2,24.2,0000.0,0004.72,0012.72,0003.73
2023-10-02 18:19:00,SystemResetWarning,0827.8,5.00,000.00,028.5,026.8,000.0,037.0,030.3,24.2,0000.0,0004.75,0012.93,0003.74
2023-10-02 18:20:00,SystemResetWarning,0827.4,5.00,000.00,028.6,027.1,000.0,037.1,030.3,24.3,0000.0,0004.81,0013.21,0003.74
2023-10-02 18:21:00,SystemResetWarning,0827.4,5.01,000.00,028.6,027.3,000.0,037.1,030.4,24.0,0000.0,0004.83,0012.68,0003.74
2023-10-02 18:22:00,SystemResetWarning,0827.4,5.01,000.00,028.6,027.4,000.0,037.1,030.4,24.0,0000.0,0004.84,0012.34,0003.75
2023-10-02 18:23:00,SystemResetWarning,0827.4,5.00,000.00,028.7,027.6,000.0,037.1,030.5,24.2,0000.0,0004.79,0012.41,0003.75
2023-10-02 18:24:00,SystemResetWarning,0827.3,4.99,000.00,028.7,027.7,000.0,037.1,030.6,24.3,0000.0,0004.82,0011.56,0003.75
2023-10-02 18:25:00,SystemResetWarning,0827.2,4.99,000.00,028.8,026.9,000.0,037.1,030.6,24.0,0000.0,0004.79,0011.93,0003.74
2023-10-02 18:26:00,SystemResetWarning,0827.2,5.00,000.00,028.7,025.1,000.0,037.0,030.3,24.1,0000.0,0004.78,0012.37,0003.73
2023-10-02 18:27:00,SystemResetWarning,0827.2,5.01,000.00,028.6,024.5,000.0,037.0,030.2,24.2,0000.0,0004.70,0011.83,0003.71
2023-10-02 18:28:00,SystemResetWarning,0827.1,5.01,000.00,028.5,024.8,000.0,037.0,030.1,24.2,0000.0,0004.69,0011.69,0003.72
2023-10-02 18:29:00,SystemResetWarning,0827.1,5.00,000.00,028.5,025.2,000.0,037.0,030.0,24.4,0000.0,0004.68,0012.12,0003.71
2023-10-02 18:30:00,SystemResetWarning,0827.1,5.00,000.00,028.4,025.6,000.0,037.0,030.0,24.3,0000.0,0004.63,0011.83,0003.71
2023-10-02 18:31:00,SystemResetWarning,0827.2,5.00,000.00,028.4,025.9,000.0,037.0,030.1,24.7,0000.0,0004.58,0011.41,0003.71
2023-10-02 18:32:00,SystemResetWarning,0827.1,4.99,000.00,028.4,026.3,000.0,037.0,030.1,24.6,0000.0,0004.52,0011.47,0003.70
2023-10-02 18:33:00,SystemResetWarning,0827.1,5.00,000.00,028.5,026.6,000.0,037.0,030.2,24.8,0000.0,0004.50,0011.75,0003.70
2023-10-02 18:34:00,SystemResetWarning,0827.1,5.00,000.00,028.5,026.8,000.0,037.0,030.3,24.8,0000.0,0004.53,0011.77,0003.71
2023-10-02 18:35:00,SystemResetWarning,0827.1,4.99,000.00,028.5,027.1,000.0,037.0,030.3,24.8,0000.0,0004.52,0011.16,0003.71
2023-10-02 18:36:00,SystemResetWarning,0827.1,4.98,000.00,028.6,027.2,000.0,037.0,030.4,24.7,0000.0,0004.54,0010.75,0003.71
2023-10-02 18:37:00,SystemResetWarning,0827.0,5.00,000.00,028.6,027.4,000.0,037.0,030.4,24.8,0000.0,0004.51,0010.22,0003.71
2023-10-02 18:38:00,SystemResetWarning,0827.0,5.01,000.00,028.6,027.5,000.0,037.0,030.5,24.8,0000.0,0004.54,0010.17,0003.72
2023-10-02 18:39:00,SystemResetWarning,0827.0,5.00,000.00,028.7,027.4,000.0,037.0,030.5,24.5,0000.0,0004.55,0010.53,0003.71
2023-10-02 18:40:00,SystemResetWarning,0826.9,4.99,000.00,028.7,025.8,000.0,037.0,030.4,24.8,0000.0,0004.54,0010.17,0003.72
2023-10-02 18:41:00,SystemResetWarning,0826.9,5.01,000.00,028.6,024.7,000.0,036.9,030.2,24.3,0000.0,0004.55,0010.23,0003.71
2023-10-02 18:42:00,SystemResetWarning,0827.0,5.00,000.00,028.5,024.7,000.0,036.9,030.1,24.5,0000.0,0004.56,0010.36,0003.71
2023-10-02 18:43:00,SystemResetWarning,0826.9,5.01,000.00,028.4,025.0,000.0,036.9,030.0,24.2,0000.0,0004.58,0010.77,0003.73
2023-10-02 18:44:00,SystemResetWarning,0826.9,5.00,000.00,028.4,025.4,000.0,036.9,030.0,23.9,0000.0,0004.60,0010.90,0003.74
2023-10-02 18:45:00,SystemResetWarning,0826.8,5.00,000.00,028.4,025.8,000.0,036.9,030.0,24.0,0000.0,0004.63,0010.86,0003.74
2023-10-02 18:46:00,SystemResetWarning,0826.8,5.00,000.00,028.4,026.2,000.0,036.9,030.1,24.2,0000.0,0004.67,0010.94,0003.73
2023-10-02 18:47:00,SystemResetWarning,0826.8,5.00,000.00,028.4,026.5,000.0,036.9,030.2,24.4,0000.0,0004.66,0010.83,0003.73
2023-10-02 18:48:00,SystemResetWarning,0826.8,5.00,000.00,028.4,026.8,000.0,036.9,030.2,24.2,0000.0,0004.67,0010.76,0003.73
2023-10-02 18:49:00,SystemResetWarning,0826.8,5.00,000.00,028.5,027.0,000.0,036.9,030.3,24.0,0000.0,0004.66,0010.84,0003.73
2023-10-02 18:50:00,SystemResetWarning,0826.8,5.00,000.00,028.5,027.2,000.0,036.9,030.3,24.0,0000.0,0004.63,0010.85,0003.73
2023-10-02 18:51:00,SystemResetWarning,0826.8,5.00,000.00,028.6,027.3,000.0,037.0,030.4,23.8,0000.0,0004.60,0010.78,0003.74
2023-10-02 18:52:00,SystemResetWarning,0826.8,4.98,000.00,028.6,026.2,000.0,036.9,030.3,23.7,0000.0,0004.59,0011.05,0003.74
2023-10-02 18:53:00,SystemResetWarning,0826.7,5.00,000.00,028.5,024.7,000.0,036.9,030.1,23.8,0000.0,0004.60,0011.11,0003.75
2023-10-02 18:54:00,SystemResetWarning,0826.6,5.01,000.00,028.4,024.6,000.0,036.8,030.0,23.8,0000.0,0004.63,0011.16,0003.76
2023-10-02 18:55:00,SystemResetWarning,0826.6,5.01,000.00,028.4,024.9,000.0,036.8,029.9,24.1,0000.0,0004.66,0011.53,0003.76
2023-10-02 18:56:00,SystemResetWarning,0826.6,5.00,000.00,028.3,025.3,000.0,036.8,029.9,24.3,0000.0,0004.71,0011.77,0003.78
2023-10-02 18:57:00,SystemResetWarning,0826.5,5.00,000.00,028.3,025.7,000.0,036.8,029.9,24.3,0000.0,0004.70,0012.31,0003.79
2023-10-02 18:58:00,SystemResetWarning,0826.6,5.00,000.00,028.3,026.1,000.0,036.8,030.0,24.9,0000.0,0004.68,0012.84,0003.78
2023-10-02 18:59:00,SystemResetWarning,0826.6,5.00,000.00,028.3,026.5,000.0,036.8,030.1,25.1,0000.0,0004.73,0013.08,0003.79
